Franklin, PA

8:26 PM EST on December 06, 2019 (GMT -0500)
Venango Regional

Weather History for KFKL - November, 2019

Change the Weather History Date:

Monday, November 11, 2019

  Actual Average Record
Temperature  
Mean Temperature 37 °F -  
Max Temperature 44 °F 50 °F 69 °F (1939)
Min Temperature 28 °F 34 °F 12 °F (2017)
Degree Days  
Heating Degree Days 28    
Moisture  
Dew Point 36 °F    
Average Humidity 91    
Maximum Humidity 100    
Minimum Humidity 79    
Precipitation  
Precipitation 0.04 in - - ()
Sea Level Pressure  
Sea Level Pressure 29.96 in    
Wind  
Wind Speed 3 mph (NNE)    
Max Wind Speed 9 mph    
Max Gust Speed -    
Visibility 7 miles    
Events Rain , Snow    
Averages and records for this station are not official NWS values.
T = Trace of Precipitation, MM = Missing Value Source: NWS Daily Summary

Daily Weather History Graph

Daily Weather History Graph

Search for Another Location

Airport or City:

Astronomy

Nov. 11, 2019 Rise Set
Actual Time 7:02 AM EST 5:03 PM EST
Civil Twilight 6:33 AM EST 5:33 PM EST
Nautical Twilight 6:00 AM EST 6:06 PM EST
Astronomical Twilight 5:27 AM EST 6:38 PM EST
Moon 4:59 PM EST (11/11) 5:50 AM EST (11/11)
Length of Visible Light 10h 59m
Length of Day
10h 00m
Waxing Gibbous, 99% of the Moon is Illuminated
Nov 11
Waxing Gibbous
Nov 12
Full
Nov 19
Last Quarter
Nov 26
New
Dec 4
First Quarter

Hourly Weather History & Observations

Time (EST) Temp. Windchill Dew Point Humidity Pressure Visibility Wind Dir Wind Speed Gust Speed Precip Events Conditions
12:56 AM 39.9 °F 36.7 °F 37.9 °F 93% 30.04 in 8.0 mi NNE 4.6 mph - N/A   Overcast
1:56 AM 39.9 °F - 37.9 °F 93% 30.05 in 7.0 mi Calm Calm - N/A   Overcast
2:41 AM 39.2 °F - 37.4 °F 93% 30.03 in 7.0 mi Calm Calm - N/A   Overcast
2:56 AM 39.9 °F - 37.9 °F 93% 30.06 in 6.0 mi Calm Calm - N/A   Overcast
3:56 AM 39.0 °F - 37.9 °F 96% 30.06 in 5.0 mi Calm Calm - N/A   Overcast
4:29 AM 39.2 °F 35.9 °F 37.4 °F 93% 30.03 in 5.0 mi NNE 4.6 mph - N/A   Overcast
4:56 AM 39.0 °F 35.7 °F 37.0 °F 93% 30.06 in 6.0 mi NNE 4.6 mph - N/A   Overcast
5:56 AM 39.0 °F 35.7 °F 37.0 °F 93% 30.07 in 6.0 mi North 4.6 mph - N/A   Overcast
6:43 AM 37.4 °F 33.8 °F 37.4 °F 100% 30.04 in 6.0 mi North 4.6 mph - N/A   Overcast
6:56 AM 37.9 °F 34.4 °F 37.0 °F 97% 30.07 in 6.0 mi NNE 4.6 mph - N/A   Overcast
7:56 AM 39.0 °F - 37.0 °F 93% 30.09 in 6.0 mi Calm Calm - N/A   Overcast
8:09 AM 39.2 °F 37.0 °F 37.4 °F 93% 30.06 in 7.0 mi ENE 3.5 mph - N/A   Overcast
8:56 AM 39.0 °F - 37.0 °F 93% 30.09 in 5.0 mi Calm Calm - N/A   Overcast
9:56 AM 41.0 °F 39.0 °F 37.9 °F 89% 30.06 in 6.0 mi ESE 3.5 mph - N/A   Overcast
10:29 AM 41.0 °F - 37.4 °F 87% 30.02 in 7.0 mi Calm Calm - N/A   Overcast
10:43 AM 42.8 °F 41.1 °F 37.4 °F 81% 30.02 in 7.0 mi NE 3.5 mph - N/A   Overcast
10:56 AM 41.0 °F - 37.9 °F 89% 30.05 in 7.0 mi Calm Calm - N/A   Overcast
11:22 AM 42.8 °F 41.1 °F 37.4 °F 81% 30.00 in 8.0 mi NE 3.5 mph - N/A   Overcast
11:56 AM 43.0 °F 40.3 °F 37.9 °F 82% 30.00 in 9.0 mi ESE 4.6 mph - N/A   Overcast
12:56 PM 44.1 °F - 37.9 °F 79% 29.96 in 10.0 mi Calm Calm - N/A   Overcast
1:56 PM 44.1 °F 42.5 °F 39.0 °F 82% 29.92 in 10.0 mi ENE 3.5 mph - N/A   Overcast
2:56 PM 44.1 °F 41.5 °F 39.0 °F 82% 29.89 in 10.0 mi NE 4.6 mph - N/A   Overcast
3:56 PM 44.1 °F 41.5 °F 37.9 °F 79% 29.88 in 10.0 mi North 4.6 mph - N/A   Overcast
4:56 PM 42.1 °F 36.6 °F 37.9 °F 85% 29.86 in 10.0 mi NNE 9.2 mph - N/A   Overcast
5:37 PM 39.2 °F 34.2 °F 37.4 °F 93% 29.82 in 10.0 mi Variable 6.9 mph - N/A   Overcast
5:49 PM 39.2 °F 35.0 °F 37.4 °F 93% 29.82 in 10.0 mi North 5.8 mph - N/A   Overcast
5:56 PM 39.0 °F 34.0 °F 37.0 °F 93% 29.85 in 9.0 mi North 6.9 mph - N/A   Overcast
6:56 PM 36.0 °F 32.1 °F 34.0 °F 93% 29.86 in 10.0 mi Variable 4.6 mph - N/A   Overcast
7:35 PM 35.6 °F 30.7 °F 32.0 °F 87% 29.84 in 10.0 mi NW 5.8 mph - 0.00 in Rain Light Rain
7:56 PM 34.0 °F 28.0 °F 32.0 °F 92% 29.87 in 9.0 mi North 6.9 mph - 0.00 in Rain Light Rain
8:21 PM 33.8 °F 26.4 °F 32.0 °F 93% 29.81 in 10.0 mi NNE 9.2 mph - 0.00 in Rain Light Rain
8:56 PM 32.0 °F 24.8 °F 30.9 °F 96% 29.86 in 4.0 mi NNE 8.1 mph - 0.00 in Snow Light Snow
9:56 PM 32.0 °F 27.5 °F 30.9 °F 96% 29.84 in 8.0 mi North 4.6 mph - 0.00 in   Overcast
10:34 PM 32.0 °F 26.4 °F 30.2 °F 93% 29.82 in 2.0 mi NNW 5.8 mph - 0.00 in Snow Light Snow
10:56 PM 30.9 °F 25.2 °F 30.0 °F 96% 29.87 in 1.2 mi Variable 5.8 mph - 0.02 in Snow Light Snow
11:21 PM 30.2 °F 24.3 °F 28.4 °F 93% 29.84 in 2.5 mi Variable 5.8 mph - 0.01 in Snow Light Snow
11:56 PM 28.0 °F 19.3 °F 27.0 °F 96% 29.89 in 1.2 mi NNW 9.2 mph - 0.02 in Snow Light Snow